{"data":{"norad_id":59925,"epoch":"2026-09-21T10:32:44.800224Z","epoch_age_seconds":93331,"freshness":"FRESH","line1":"1 59925U 24106D   26264.43940741  .00001461  00000+0  62611-4 0  9996","line2":"2 59925  43.0047 303.1925 0001631 270.8311  89.2353 15.27582377130502","mean_motion":15.27582377,"eccentricity":0.0001631,"inclination_deg":43.0047,"raan_deg":303.1925,"arg_perigee_deg":270.8311,"mean_anomaly_deg":89.2353,"bstar":6.2611e-5,"rev_number":13050,"period_min":94.266602029541,"perigee_km":481.92292016437,"apogee_km":484.16103674715,"semimajor_km":6861.1789784558,"source":"CELESTRAK","updated_at":"2026-09-22T09:00:49.111215Z"}}